STARLINK-1954 (47555 NORAD) Tracking and Keplerian Element Data

This shows tracking and keplerian element data for the satellite.

Feedback or suggestion? Click here.




ElementValue
Catalog47555
NameSTARLINK-1954
Epoch Orbit177
Epoch Day101.91668981
Epoch Year2021
RAAN157.5551
Inclination53.0536
Eccentricity0.0003731
Argument of Perigee10.2254
Mean Anonmoly231.7031
Mean Motion15.62753733
Decay Rate0.00034087
L11 47555U 21009H 21101.91668981 .00034087 00000-0 37647-3 0 9993
L22 47555 53.0536 157.5551 0003731 10.2254 231.7031 15.62753733 1771

Live tracking and technical data element details for STARLINK-1954 (NORAD 47555). STARLINK-1954 can be tracked NOW for your location showing map with azimuth and elevation plus other details from your city location.

Track the satellite on the map from your city or location and see movement details for azimuth, elevation, latitude, longitude, range, height, and movement on the map or in text.







IsCatalogInMostPopularTable: catalog: 47555, numindb: 12
Update: records affected: 1



GetName: 47555 STARLINK-1954

Hit Count: updated at: Tue, 13 Apr 2021 04:12:53 GMT